Weather in Rybinsk

Russia / Yaroslavl Oblast     58°02′54″N   38°51′30″E
temp.,
°C
wind,
m/s
gust,
m/s
humid.,
%
clouds,
%
prec.,
mm/h
press.,
hPa
HPBL,
m
7 may, fri
fri700:00+7sw6118617 0.1 1004814
03:00+6ssw4990100 0.1 1005848
06:00+6sw5884100 0.1 1006905
09:00+8sw586083 0.1 10071408
12:00+9sw595791 0.0 10081818
15:00+12wsw6941100 0.1 10082861
18:00+12sw49514 0.0 10091982
21:00+7s36725 0.0 101195
8 may, sat
sat800:00+5s3108098 0.0 1011200
03:00+6sse41174100 0.0 1011272
06:00+8sse51467100 0.0 1010755
09:00+9sse61566100 0.0 10091454
12:00+8sse71589100 1.9 10081346
15:00+8sse51091100 6.3 10071175
18:00+8se51195100 3.5 1005769
21:00+7se2697100 6.1 1004324
9 may, sun
sun900:00+7nnw1299100 1.5 1004130
03:00+4nnw61196100 1.8 1005439
06:00+4nnw71395100 1.3 1007557
09:00+3nnw71296100 4.6 1009806
12:00+4nnw61291100 2.3 1012881
15:00+7nnw71177100 2.6 10151194
18:00+7nnw510692 0.1 1017927
21:00+3nnw23790 0.1 102043
10 may, mon
mon1000:00+3wnw22750 0.0 102222
03:00+2wnw11795 0.0 102510
06:00+4w11755 0.0 102754
09:00+10w12445 0.0 1028468
12:00+14sw23375 0.0 10281490
15:00+15sw344197 0.0 10281627
18:00+14sw245765 0.0 1029333
21:00+9ssw22705 0.0 103020
11 may, tue
tue1100:00+7s227258 0.0 103026
03:00+6ssw237684 0.0 103142
06:00+8s2475100 0.0 1032108
09:00+13s2357100 0.0 1032363
12:00+17s2349100 0.0 1032949
15:00+19sse224785 0.0 10301092
18:00+18se246052 0.0 1030340
21:00+12sse338429 0.0 103052